Regional Weather Roundup
Issued by NWS

Home | Current Version | Previous Version | Text Only | Print | Product List | Glossary On
Versions: 1 2 3 4 5 6 7 8 9 10 11 12 13 14 15 16 17 18 19 20 21 22 23 24 25 26
000
ASUS46 KPQR 111710
RWROR

OREGON REGIONAL WEATHER ROUNDUP
NATIONAL WEATHER SERVICE PORTLAND OR
900 AM PST MON DEC 11 2017

NOTE: "FAIR" INDICATES FEW OR NO CLOUDS BELOW 12,000 FEET WITH
NO SIGNIFICANT WEATHER AND/OR OBSTRUCTIONS TO VISIBILITY.

ORZ001>013-111800-
NORTHWEST OREGON


CITY           SKY/WX    TMP DP  RH WIND       PRES   REMARKS
ASTORIA        CLEAR     42  29  59 NE13      30.28R
NEWPORT        CLEAR     41  28  60 E20G25    30.29S
PORTLAND       CLEAR     37  26  64 E7        30.42R WCI  32
VANCOUVER WA   CLEAR     32  26  78 CALM      30.42R
SCAPPOOSE      CLEAR     30  27  88 SW5       30.43R WCI  25
HILLSBORO      CLEAR     27  25  92 NW3       30.42R
AURORA         CLEAR     28  26  92 CALM      30.42R
MCMINNVILLE    CLEAR     34  26  72 N7        30.42R WCI  28
SALEM          CLEAR     29  25  85 CALM      30.40R
CORVALLIS      SUNNY     27  25  92 CALM      30.42R
EUGENE         FOG       27  25  92 CALM      30.41R VSB 1/8
$$

ORZ021-028-111800-
SOUTHWEST OREGON


CITY           SKY/WX    TMP DP  RH WIND       PRES   REMARKS
NORTH BEND     SUNNY     41  32  70 SE14      30.27S
BROOKINGS      SUNNY     48  31  51 CALM      30.28R
ROSEBURG       FOG       31  31 100 CALM      30.39R VSB 1/4
SEXTON SUMMIT  SUNNY     50   8  18 SE15      30.34R
GRANTS PASS    FOG       28  27  93 CALM      30.46S VSB 1/4
MEDFORD        FOG       24  24 100 CALM      30.42R VSB 1/4
$$

ORZ014>016-041-111800-
COLUMBIA GORGE


CITY           SKY/WX    TMP DP  RH WIND       PRES   REMARKS
TROUTDALE      CLEAR     38  24  57 E22G38    30.43S WCI  27
HOOD RIVER     CLOUDY    32  25  74 E5        30.70R WCI  27
THE DALLES     CLOUDY    33  24  69 S10       30.73R WCI  25
$$

ORZ029>031-041-044-049-050-061>064-502-503-505>511-111800-
EASTERN OREGON


CITY           SKY/WX    TMP DP  RH WIND       PRES   REMARKS
MADRAS         CLOUDY   N/A N/A N/A CALM      30.60R
REDMOND        CLOUDY    16  14  92 S5        30.54R FOG     WCI   9
BEND           MOSUNNY   14  12  92 CALM      30.52S
PRINEVILLE     FOG       14  10  85 CALM      30.53S VSB 1/4
KLAMATH FALLS  SUNNY     28  22  78 N5        30.47R WCI  23
LAKEVIEW       SUNNY     27  24  89 CALM      30.48R
HERMISTON      CLOUDY    31  28  89 CALM      30.70R
PENDLETON      CLOUDY    27  25  92 NW3       30.64R
JOHN DAY       SUNNY     26  19  76 CALM      30.49S
MEACHAM        SUNNY     25  17  72 CALM      30.48S
LA GRANDE      MOSUNNY   26  21  81 VRB7      30.61R WCI  18
BAKER CITY     CLOUDY    21  16  81 CALM      30.63R
BURNS          CLOUDY    18  15  88 CALM      30.60R FOG
ROME             N/A     18  13  80 E3        30.61R
ONTARIO        CLOUDY    29  24  82 S3        30.75R
$$




USA.gov is the U.S. government's official web portal to all federal, state and local government web resources and services.